Date,TemperatureHighF,TemperatureAvgF,TemperatureLowF,DewpointHighF,DewpointAvgF,DewpointLowF,HumidityHigh,HumidityAvg,HumidityLow,PressureMaxIn,PressureMinIn,WindSpeedMaxMPH,WindSpeedAvgMPH,GustSpeedMaxMPH,PrecipitationSumIn
2013-12-1,52,45,38,39,35,29,73,67,59,30.20,29.96,6,2,10,0.00
2013-12-2,54,46,40,42,39,36,86,77,65,29.96,29.78,3,1,6,0.00
2013-12-3,54,48,41,48,44,38,95,88,81,29.88,29.79,7,2,13,0.00
2013-12-4,64,57,49,59,54,47,96,89,83,29.87,29.72,11,5,16,0.00
2013-12-5,63,50,33,61,48,32,99,92,83,30.13,29.76,8,2,15,0.91
2013-12-6,33,30,27,32,29,26,98,97,96,30.40,30.11,5,1,13,0.01
2013-12-7,28,25,20,26,23,17,98,92,85,30.61,30.39,3,1,7,0.00
2013-12-8,32,26,20,32,24,17,99,93,86,30.54,30.05,6,2,8,0.00
2013-12-9,33,30,26,33,28,24,99,93,87,30.25,30.04,9,2,13,0.00
2013-12-10,30,25,21,24,20,17,95,84,66,30.39,30.16,10,2,20,0.00
2013-12-11,37,25,16,27,20,14,95,82,63,30.53,30.32,9,2,15,0.01
2013-12-12,26,19,11,14,10,4,86,69,44,30.59,30.38,10,2,14,0.00
2013-12-13,41,30,20,31,20,14,84,66,47,30.39,30.17,7,2,11,0.09
2013-12-14,40,37,34,40,35,27,99,92,68,30.17,29.71,11,4,15,0.46
2013-12-15,34,30,28,32,26,23,95,86,73,30.14,29.88,10,3,15,0.00
2013-12-16,35,32,27,33,30,24,98,93,85,30.14,30.02,5,1,7,0.01
2013-12-17,36,32,30,34,29,26,95,89,81,30.20,30.00,5,1,13,0.00
2013-12-18,39,32,26,26,22,20,95,71,48,30.30,30.09,8,3,12,0.00
2013-12-19,58,47,36,42,33,22,65,58,50,30.12,29.98,16,4,21,0.00
2013-12-20,59,54,49,58,47,34,97,78,50,29.98,29.84,11,6,20,0.01
2013-12-21,67,61,56,64,60,55,100,97,89,29.84,29.44,17,7,32,1.85
2013-12-22,61,54,40,61,51,38,100,90,77,30.02,29.51,22,5,27,0.33
2013-12-23,40,33,26,38,28,20,94,80,67,30.40,30.02,13,2,16,0.00
2013-12-24,26,20,15,22,14,10,90,77,61,30.58,30.38,7,1,15,0.00
2013-12-25,37,28,17,22,17,13,83,66,47,30.53,30.23,8,3,11,0.00
2013-12-26,42,35,32,28,25,22,82,67,50,30.38,30.21,9,2,17,0.00
2013-12-27,50,38,27,33,28,24,88,70,50,30.44,30.32,6,2,12,0.00
2013-12-28,53,42,34,35,30,28,77,64,50,30.31,30.04,11,2,13,0.00
2013-12-29,44,39,34,41,37,29,98,90,56,30.04,29.82,7,2,14,0.38
2013-12-30,34,28,23,32,24,19,95,83,75,30.25,30.03,4,1,11,0.00
2013-12-31,36,28,23,23,20,18,86,71,54,30.41,30.20,7,2,13,0.00